Location: Passau
(48.5830°N, 13.4830°E)
Time: 21:45:34
(UTC+02:00)

N. Korean satellite - Pass Details

Date: 01 October 2021
Orbit: 450 x 495 km, 97.3° (Epoch: 25 October)

Event Time Altitude Azimuth Distance (km) Brightness Sun altitude
Rises 05:49:43 0° 22° (NNE) 2,547 10.7 -13.3°
Reaches altitude 10° 05:51:58 10° 34° (NE) 1,671 9.9 -12.9°
Maximum altitude 05:55:08 28° 96° (E) 932 8.8 -12.4°
Drops below altitude 10° 05:58:18 10° 157° (SSE) 1,677 9.5 -11.9°
Sets 06:00:34 0° 169° (S) 2,558 10.3 -11.5°
